Time,TemperatureF,DewpointF,PressureIn,WindDirection,WindDirectionDegrees,WindSpeedMPH,WindSpeedGustMPH,Humidity,HourlyPrecipIn,Conditions,Clouds,dailyrainin,SoftwareType,DateUTC
2013-01-15 00:02:00,21.0,18.0,29.93,East,100,0.0,0.0,87,0.00,,,0.00,,2013-01-15 06:02:00,
2013-01-15 00:12:00,21.0,18.0,29.93,East,100,0.0,0.0,87,0.00,,,0.00,,2013-01-15 06:12:00,
2013-01-15 00:22:00,21.0,17.0,29.93,East,93,0.0,0.0,86,0.00,,,0.00,,2013-01-15 06:22:00,
2013-01-15 00:33:00,21.0,17.0,29.93,East,93,0.0,0.0,86,0.00,,,0.00,,2013-01-15 06:33:00,
2013-01-15 00:43:00,21.0,17.0,29.93,East,93,0.0,0.0,86,0.00,,,0.00,,2013-01-15 06:43:00,
2013-01-15 00:53:00,21.0,17.0,29.95,ENE,59,0.0,0.0,83,0.00,,,0.00,,2013-01-15 06:53:00,
2013-01-15 01:02:00,21.0,17.0,29.95,ENE,59,0.0,0.0,83,0.00,,,0.00,,2013-01-15 07:02:00,
2013-01-15 01:12:00,21.0,17.0,29.95,ENE,59,0.0,0.0,83,0.00,,,0.00,,2013-01-15 07:12:00,
2013-01-15 01:22:00,21.0,16.0,29.95,ENE,75,0.0,0.0,82,0.00,,,0.00,,2013-01-15 07:22:00,
2013-01-15 01:32:00,21.0,16.0,29.95,ENE,75,0.0,0.0,82,0.00,,,0.00,,2013-01-15 07:32:00,
2013-01-15 01:43:00,21.0,16.0,29.95,ENE,75,0.0,0.0,82,0.00,,,0.00,,2013-01-15 07:43:00,
2013-01-15 01:52:00,21.0,17.0,29.94,ENE,75,0.0,0.0,83,0.00,,,0.00,,2013-01-15 07:52:00,
2013-01-15 02:02:00,21.0,17.0,29.94,ENE,75,0.0,0.0,83,0.00,,,0.00,,2013-01-15 08:02:00,
2013-01-15 02:12:00,21.0,17.0,29.94,ENE,75,0.0,0.0,83,0.00,,,0.00,,2013-01-15 08:12:00,
2013-01-15 02:22:00,20.0,16.0,29.95,ENE,73,0.0,0.0,84,0.00,,,0.00,,2013-01-15 08:22:00,
2013-01-15 02:32:00,20.0,16.0,29.95,ENE,73,0.0,0.0,84,0.00,,,0.00,,2013-01-15 08:32:00,
2013-01-15 02:43:00,20.0,16.0,29.95,ENE,73,0.0,0.0,84,0.00,,,0.00,,2013-01-15 08:43:00,
2013-01-15 02:53:00,20.0,16.0,29.94,ENE,73,0.0,0.0,85,0.00,,,0.00,,2013-01-15 08:53:00,
2013-01-15 03:02:00,20.0,16.0,29.94,ENE,73,0.0,0.0,85,0.00,,,0.00,,2013-01-15 09:02:00,
2013-01-15 03:12:00,20.0,16.0,29.94,ENE,73,0.0,0.0,85,0.00,,,0.00,,2013-01-15 09:12:00,
2013-01-15 03:22:00,19.0,16.0,29.95,ESE,103,0.0,0.0,87,0.00,,,0.00,,2013-01-15 09:22:00,
2013-01-15 03:33:00,19.0,16.0,29.95,ESE,103,0.0,0.0,87,0.00,,,0.00,,2013-01-15 09:33:00,
2013-01-15 03:42:00,19.0,16.0,29.95,ESE,103,0.0,0.0,87,0.00,,,0.00,,2013-01-15 09:42:00,
2013-01-15 03:52:00,19.0,16.0,29.94,ESE,103,0.0,0.0,88,0.00,,,0.00,,2013-01-15 09:52:00,
2013-01-15 04:02:00,19.0,16.0,29.94,ESE,103,0.0,0.0,88,0.00,,,0.00,,2013-01-15 10:02:00,
2013-01-15 04:12:00,19.0,16.0,29.94,ESE,103,0.0,0.0,88,0.00,,,0.00,,2013-01-15 10:12:00,
2013-01-15 04:22:00,19.0,16.0,29.93,East,99,0.0,0.0,89,0.00,,,0.00,,2013-01-15 10:22:00,
2013-01-15 04:32:00,19.0,16.0,29.93,East,99,0.0,0.0,89,0.00,,,0.00,,2013-01-15 10:32:00,
2013-01-15 04:42:00,19.0,16.0,29.93,East,99,0.0,0.0,89,0.00,,,0.00,,2013-01-15 10:42:00,
2013-01-15 04:52:00,19.0,17.0,29.95,East,99,0.0,0.0,90,0.00,,,0.00,,2013-01-15 10:52:00,
2013-01-15 05:02:00,19.0,17.0,29.95,East,99,0.0,0.0,90,0.00,,,0.00,,2013-01-15 11:02:00,
2013-01-15 05:12:00,19.0,17.0,29.95,East,99,0.0,0.0,90,0.00,,,0.00,,2013-01-15 11:12:00,
2013-01-15 05:22:00,20.0,18.0,29.94,East,99,0.0,0.0,90,0.00,,,0.00,,2013-01-15 11:22:00,
2013-01-15 05:33:00,20.0,18.0,29.94,East,99,0.0,0.0,90,0.00,,,0.00,,2013-01-15 11:33:00,
2013-01-15 05:43:00,20.0,18.0,29.94,East,99,0.0,0.0,90,0.00,,,0.00,,2013-01-15 11:43:00,
2013-01-15 05:53:00,20.0,18.0,29.93,East,99,0.0,0.0,90,0.00,,,0.00,,2013-01-15 11:53:00,
2013-01-15 06:03:00,20.0,18.0,29.93,East,99,0.0,0.0,90,0.00,,,0.00,,2013-01-15 12:03:00,
2013-01-15 06:12:00,20.0,18.0,29.93,East,99,0.0,0.0,90,0.00,,,0.00,,2013-01-15 12:12:00,
2013-01-15 06:22:00,21.0,18.0,29.93,ESE,102,0.0,0.0,89,0.00,,,0.00,,2013-01-15 12:22:00,
2013-01-15 06:33:00,21.0,18.0,29.93,ESE,102,0.0,0.0,89,0.00,,,0.00,,2013-01-15 12:33:00,
2013-01-15 06:43:00,21.0,18.0,29.93,ESE,102,0.0,0.0,89,0.00,,,0.00,,2013-01-15 12:43:00,
2013-01-15 06:53:00,20.0,17.0,29.96,ESE,102,0.0,0.0,89,0.00,,,0.00,,2013-01-15 12:53:00,
2013-01-15 07:03:00,20.0,17.0,29.96,ESE,102,0.0,0.0,89,0.00,,,0.00,,2013-01-15 13:03:00,
2013-01-15 07:12:00,20.0,17.0,29.96,ESE,102,0.0,0.0,89,0.00,,,0.00,,2013-01-15 13:12:00,
2013-01-15 07:23:00,20.0,18.0,29.97,ESE,103,0.0,0.0,90,0.00,,,0.00,,2013-01-15 13:23:00,
2013-01-15 07:33:00,20.0,18.0,29.97,ESE,103,0.0,0.0,90,0.00,,,0.00,,2013-01-15 13:33:00,
2013-01-15 07:43:00,20.0,18.0,29.97,ESE,103,0.0,0.0,90,0.00,,,0.00,,2013-01-15 13:43:00,
2013-01-15 07:53:00,19.0,16.0,29.98,ESE,103,0.0,0.0,89,0.00,,,0.00,,2013-01-15 13:53:00,
2013-01-15 08:02:00,19.0,16.0,29.98,ESE,103,0.0,0.0,89,0.00,,,0.00,,2013-01-15 14:02:00,
2013-01-15 08:12:00,19.0,16.0,29.98,ESE,103,0.0,0.0,89,0.00,,,0.00,,2013-01-15 14:12:00,
2013-01-15 08:23:00,19.0,17.0,29.99,ESE,103,0.0,0.0,90,0.00,,,0.00,,2013-01-15 14:23:00,
2013-01-15 08:33:00,19.0,17.0,29.99,ESE,103,0.0,0.0,90,0.00,,,0.00,,2013-01-15 14:33:00,
2013-01-15 08:43:00,19.0,17.0,29.99,ESE,103,0.0,0.0,90,0.00,,,0.00,,2013-01-15 14:43:00,
2013-01-15 08:53:00,19.0,17.0,30.01,ESE,102,0.0,0.0,90,0.00,,,0.00,,2013-01-15 14:53:00,
2013-01-15 09:03:00,19.0,17.0,30.01,ESE,102,0.0,0.0,90,0.00,,,0.00,,2013-01-15 15:03:00,
2013-01-15 09:12:00,19.0,17.0,30.01,ESE,102,0.0,0.0,90,0.00,,,0.00,,2013-01-15 15:12:00,
2013-01-15 09:23:00,20.0,18.0,30.02,ESE,102,0.0,0.0,90,0.00,,,0.00,,2013-01-15 15:23:00,
2013-01-15 09:33:00,20.0,18.0,30.02,ESE,102,0.0,0.0,90,0.00,,,0.00,,2013-01-15 15:33:00,
2013-01-15 09:43:00,20.0,18.0,30.02,ESE,102,0.0,0.0,90,0.00,,,0.00,,2013-01-15 15:43:00,
2013-01-15 09:53:00,22.0,19.0,30.02,SE,136,0.0,2.0,89,0.00,,,0.00,,2013-01-15 15:53:00,
2013-01-15 10:02:00,22.0,19.0,30.02,SE,136,0.0,2.0,89,0.00,,,0.00,,2013-01-15 16:02:00,
2013-01-15 10:12:00,22.0,19.0,30.02,SE,136,0.0,2.0,89,0.00,,,0.00,,2013-01-15 16:12:00,
2013-01-15 10:22:00,24.0,20.0,30.04,ESE,120,0.0,0.0,84,0.00,,,0.00,,2013-01-15 16:22:00,
2013-01-15 10:33:00,24.0,20.0,30.04,ESE,120,0.0,0.0,84,0.00,,,0.00,,2013-01-15 16:33:00,
2013-01-15 10:43:00,24.0,20.0,30.04,ESE,120,0.0,0.0,84,0.00,,,0.00,,2013-01-15 16:43:00,
2013-01-15 10:53:00,24.0,20.0,30.04,ESE,106,2.0,7.0,85,0.00,,,0.00,,2013-01-15 16:53:00,
2013-01-15 11:03:00,24.0,20.0,30.04,ESE,106,2.0,7.0,85,0.00,,,0.00,,2013-01-15 17:03:00,
2013-01-15 11:12:00,24.0,20.0,30.04,ESE,106,2.0,7.0,85,0.00,,,0.00,,2013-01-15 17:12:00,
2013-01-15 11:22:00,25.0,20.0,30.04,East,99,3.0,6.0,81,0.00,,,0.00,,2013-01-15 17:22:00,
2013-01-15 11:33:00,25.0,20.0,30.04,East,99,3.0,6.0,81,0.00,,,0.00,,2013-01-15 17:33:00,
2013-01-15 11:43:00,25.0,20.0,30.04,East,99,3.0,6.0,81,0.00,,,0.00,,2013-01-15 17:43:00,
2013-01-15 11:53:00,27.0,21.0,30.02,East,82,1.0,4.0,77,0.00,,,0.00,,2013-01-15 17:53:00,
2013-01-15 12:03:00,27.0,21.0,30.02,East,82,1.0,4.0,77,0.00,,,0.00,,2013-01-15 18:03:00,
2013-01-15 12:13:00,27.0,21.0,30.02,East,82,1.0,4.0,77,0.00,,,0.00,,2013-01-15 18:13:00,
2013-01-15 12:23:00,29.0,21.0,30.03,East,99,0.0,7.0,73,0.00,,,0.00,,2013-01-15 18:23:00,
2013-01-15 12:33:00,29.0,21.0,30.03,East,99,0.0,7.0,73,0.00,,,0.00,,2013-01-15 18:33:00,
2013-01-15 12:43:00,29.0,21.0,30.03,East,99,0.0,7.0,73,0.00,,,0.00,,2013-01-15 18:43:00,
2013-01-15 12:53:00,32.0,23.0,30.00,SSE,147,2.0,6.0,69,0.00,,,0.00,,2013-01-15 18:53:00,
2013-01-15 13:03:00,32.0,23.0,30.00,SSE,147,2.0,6.0,69,0.00,,,0.00,,2013-01-15 19:03:00,
2013-01-15 13:12:00,32.0,23.0,30.00,SSE,147,2.0,6.0,69,0.00,,,0.00,,2013-01-15 19:12:00,
2013-01-15 13:23:00,33.0,22.0,30.00,East,85,0.0,6.0,63,0.00,,,0.00,,2013-01-15 19:23:00,
2013-01-15 13:33:00,33.0,22.0,30.00,East,85,0.0,6.0,63,0.00,,,0.00,,2013-01-15 19:33:00,
2013-01-15 13:43:00,33.0,22.0,30.00,East,85,0.0,6.0,63,0.00,,,0.00,,2013-01-15 19:43:00,
2013-01-15 13:53:00,32.0,22.0,29.97,ESE,113,3.0,7.0,66,0.00,,,0.00,,2013-01-15 19:53:00,
2013-01-15 14:03:00,32.0,22.0,29.97,ESE,113,3.0,7.0,66,0.00,,,0.00,,2013-01-15 20:03:00,
2013-01-15 14:12:00,32.0,22.0,29.97,ESE,113,3.0,7.0,66,0.00,,,0.00,,2013-01-15 20:12:00,
2013-01-15 14:23:00,34.0,22.0,29.98,East,96,4.0,7.0,62,0.00,,,0.00,,2013-01-15 20:23:00,
2013-01-15 14:31:00,35.0,22.0,29.98,NE,55,4.0,10.0,59,0.00,,,0.00,,2013-01-15 20:31:00,
2013-01-15 14:33:00,34.0,22.0,29.98,East,96,4.0,7.0,62,0.00,,,0.00,,2013-01-15 20:33:00,
2013-01-15 14:43:00,34.0,22.0,29.98,East,96,4.0,7.0,62,0.00,,,0.00,,2013-01-15 20:43:00,
2013-01-15 14:53:00,35.0,22.0,29.98,NE,55,4.0,10.0,59,0.00,,,0.00,,2013-01-15 20:53:00,
2013-01-15 15:03:00,35.0,22.0,29.98,NE,55,4.0,10.0,59,0.00,,,0.00,,2013-01-15 21:03:00,
2013-01-15 15:13:00,35.0,22.0,29.98,NE,55,4.0,10.0,59,0.00,,,0.00,,2013-01-15 21:13:00,
2013-01-15 15:23:00,35.0,22.0,29.98,NE,55,4.0,10.0,59,0.00,,,0.00,,2013-01-15 21:23:00,
2013-01-15 15:53:00,34.0,20.0,29.98,East,93,5.0,10.0,57,0.00,,,0.00,,2013-01-15 21:53:00,
2013-01-15 16:02:00,34.0,21.0,29.99,ESE,114,2.0,7.0,58,0.00,,,0.00,,2013-01-15 22:02:00,
2013-01-15 16:03:00,34.0,20.0,29.98,East,93,5.0,10.0,57,0.00,,,0.00,,2013-01-15 22:03:00,
2013-01-15 16:12:00,34.0,20.0,29.98,East,93,5.0,10.0,57,0.00,,,0.00,,2013-01-15 22:12:00,
2013-01-15 16:23:00,34.0,21.0,29.99,ESE,114,2.0,7.0,58,0.00,,,0.00,,2013-01-15 22:23:00,
2013-01-15 16:33:00,34.0,21.0,29.99,ESE,114,2.0,7.0,58,0.00,,,0.00,,2013-01-15 22:33:00,
2013-01-15 16:43:00,34.0,21.0,29.99,ESE,114,2.0,7.0,58,0.00,,,0.00,,2013-01-15 22:43:00,
2013-01-15 16:53:00,34.0,21.0,29.99,ESE,114,2.0,7.0,58,0.00,,,0.00,,2013-01-15 22:53:00,
2013-01-15 17:53:00,33.0,20.0,30.03,ESE,121,0.0,6.0,58,0.00,,,0.00,,2013-01-15 23:53:00,
2013-01-15 18:02:00,33.0,20.0,30.03,ESE,121,0.0,6.0,58,0.00,,,0.00,,2013-01-16 00:02:00,
2013-01-15 18:12:00,33.0,20.0,30.03,ESE,121,0.0,6.0,58,0.00,,,0.00,,2013-01-16 00:12:00,
2013-01-15 18:22:00,32.0,19.0,30.04,East,97,0.0,4.0,59,0.00,,,0.00,,2013-01-16 00:22:00,
2013-01-15 18:32:00,32.0,19.0,30.04,East,97,0.0,4.0,59,0.00,,,0.00,,2013-01-16 00:32:00,
2013-01-15 18:43:00,32.0,19.0,30.04,East,97,0.0,4.0,59,0.00,,,0.00,,2013-01-16 00:43:00,
2013-01-15 18:53:00,30.0,19.0,30.06,East,96,0.0,0.0,63,0.00,,,0.00,,2013-01-16 00:53:00,
2013-01-15 19:02:00,30.0,19.0,30.06,East,96,0.0,0.0,63,0.00,,,0.00,,2013-01-16 01:02:00,
2013-01-15 19:12:00,30.0,19.0,30.06,East,96,0.0,0.0,63,0.00,,,0.00,,2013-01-16 01:12:00,
2013-01-15 19:22:00,28.0,18.0,30.06,East,100,0.0,2.0,67,0.00,,,0.00,,2013-01-16 01:22:00,
2013-01-15 19:33:00,28.0,18.0,30.06,East,100,0.0,2.0,67,0.00,,,0.00,,2013-01-16 01:33:00,
2013-01-15 19:43:00,28.0,18.0,30.06,East,100,0.0,2.0,67,0.00,,,0.00,,2013-01-16 01:43:00,
2013-01-15 19:53:00,27.0,18.0,30.07,ESE,114,0.0,0.0,68,0.00,,,0.00,,2013-01-16 01:53:00,
2013-01-15 20:02:00,27.0,18.0,30.07,ESE,114,0.0,0.0,68,0.00,,,0.00,,2013-01-16 02:02:00,
2013-01-15 20:12:00,27.0,18.0,30.07,ESE,114,0.0,0.0,68,0.00,,,0.00,,2013-01-16 02:12:00,
2013-01-15 20:22:00,26.0,18.0,30.07,ESE,114,0.0,0.0,70,0.00,,,0.00,,2013-01-16 02:22:00,
2013-01-15 20:32:00,26.0,18.0,30.07,ESE,114,0.0,0.0,70,0.00,,,0.00,,2013-01-16 02:32:00,
2013-01-15 20:43:00,26.0,18.0,30.07,ESE,114,0.0,0.0,70,0.00,,,0.00,,2013-01-16 02:43:00,
2013-01-15 20:53:00,25.0,17.0,30.09,ESE,116,0.0,0.0,72,0.00,,,0.00,,2013-01-16 02:53:00,
2013-01-15 21:02:00,25.0,17.0,30.09,ESE,116,0.0,0.0,72,0.00,,,0.00,,2013-01-16 03:02:00,
2013-01-15 21:12:00,24.0,17.0,30.11,East,92,0.0,0.0,75,0.00,,,0.00,,2013-01-16 03:12:00,
2013-01-15 21:22:00,24.0,17.0,30.11,East,92,0.0,0.0,75,0.00,,,0.00,,2013-01-16 03:22:00,
2013-01-15 21:32:00,24.0,17.0,30.11,East,92,0.0,0.0,75,0.00,,,0.00,,2013-01-16 03:32:00,
2013-01-15 21:43:00,24.0,17.0,30.11,East,92,0.0,0.0,75,0.00,,,0.00,,2013-01-16 03:43:00,
2013-01-15 21:53:00,24.0,17.0,30.12,East,99,0.0,0.0,74,0.00,,,0.00,,2013-01-16 03:53:00,
2013-01-15 22:02:00,24.0,17.0,30.12,East,99,0.0,0.0,74,0.00,,,0.00,,2013-01-16 04:02:00,
2013-01-15 22:12:00,24.0,17.0,30.12,East,99,0.0,0.0,74,0.00,,,0.00,,2013-01-16 04:12:00,
2013-01-15 22:22:00,23.0,16.0,30.14,East,99,0.0,0.0,73,0.00,,,0.00,,2013-01-16 04:22:00,
2013-01-15 22:32:00,23.0,16.0,30.14,East,99,0.0,0.0,73,0.00,,,0.00,,2013-01-16 04:32:00,
2013-01-15 22:42:00,23.0,16.0,30.14,East,99,0.0,0.0,73,0.00,,,0.00,,2013-01-16 04:42:00,
2013-01-15 22:52:00,23.0,17.0,30.13,North,359,0.0,0.0,76,0.00,,,0.00,,2013-01-16 04:52:00,
2013-01-15 23:03:00,23.0,17.0,30.13,North,359,0.0,0.0,76,0.00,,,0.00,,2013-01-16 05:03:00,
2013-01-15 23:12:00,23.0,17.0,30.13,North,359,0.0,0.0,76,0.00,,,0.00,,2013-01-16 05:12:00,
2013-01-15 23:22:00,22.0,16.0,30.14,North,359,0.0,0.0,77,0.00,,,0.00,,2013-01-16 05:22:00,
2013-01-15 23:32:00,22.0,16.0,30.14,North,359,0.0,0.0,77,0.00,,,0.00,,2013-01-16 05:32:00,
2013-01-15 23:42:00,22.0,16.0,30.14,North,359,0.0,0.0,77,0.00,,,0.00,,2013-01-16 05:42:00,
2013-01-15 23:53:00,23.0,10.0,30.14,WNW,299,0.0,3.0,58,0.00,,,0.00,,2013-01-16 05:53:00,